ES'HAIL 2 (43700 NORAD) Tracking and Keplerian Element Data

This shows tracking and keplerian element data for the satellite.

Feedback or suggestion? Click here.




ElementValue
Catalog43700
NameES'HAIL 2
Epoch Orbit423
Epoch Day22.5463773
Epoch Year2020
RAAN77.2562
Inclination0.0124
Eccentricity0.000189
Argument of Perigee264.3672
Mean Anonmoly2.185
Mean Motion1.00271735
Decay Rate1.36E-06
L11 43700U 18090A 20022.54637730 .00000136 00000-0 00000-0 0 9993
L22 43700 0.0124 77.2562 0001890 264.3672 2.1850 1.00271735 4231

Live tracking and technical data element details for ES'HAIL 2 (NORAD 43700). ES'HAIL 2 can be tracked NOW for your location showing map with azimuth and elevation plus other details from your city location.

Track the satellite on the map from your city or location and see movement details for azimuth, elevation, latitude, longitude, range, height, and movement on the map or in text.







IsCatalogInMostPopularTable: catalog: 43700, numindb: 6035
Update: records affected: 1



GetName: 43700 ES'HAIL 2

Hit Count: updated at: Thu, 23 Jan 2020 17:51:04 GMT